Skip Page Navigation
NASA JPL Caltech
NASA Logo - Jet Propulsion Laboratory + View the NASA Portal
+ Center for Near-Earth Object Studies
JPL Home Earth Solar System Stars & Galaxies Technology
JPL Solar System Dynamics
BODIES ORBITS EPHEMERIDES TOOLS PHYSICAL DATA DISCOVERY FAQ SITE MAP
JPL Small-Body Database Browser
Search: [ help ]  
332068 (2005 SX162)
Classification: Main-belt Asteroid          SPK-ID: 2332068
Ephemeris | Orbit Diagram | Orbital Elements | Mission Design | Physical Parameters | Discovery Circumstances ]

[ show orbit diagram ]
Orbital Elements at Epoch 2459000.5 (2020-May-31.0) TDB
Reference: JPL 12 (heliocentric ecliptic J2000)
 Element Value Uncertainty (1-sigma)   Units 
e .1328610079534173 4.5547e-08  
a 2.30999732074497 1.5435e-08 au
q 2.0030887483411 1.051e-07 au
i 7.355344700694317 6.3256e-06 deg
node 63.40604439990413 4.2595e-05 deg
peri 253.969096518258 5.0288e-05 deg
M 96.72359433688534 2.4848e-05 deg
tp 2458655.955305092370
(2019-Jun-21.45530509)
8.8626e-05 TDB
period 1282.376766673216
3.51
1.2853e-05
3.519e-08
d
yr
n .2807287291502667 2.8137e-09 deg/d
Q 2.61690589314884 1.7486e-08 au
  Orbit Determination Parameters
   # obs. used (total)      227  
   data-arc span      5677 days (15.54 yr)  
   first obs. used      2004-04-16  
   last obs. used      2019-11-01  
   planetary ephem.      DE431  
   SB-pert. ephem.      SB431-N16  
   condition code      0  
   norm. resid. RMS      .5391  
   source      ORB  
   producer      Otto Matic  
   solution date      2019-Nov-08 09:44:30  

Additional Information
 Earth MOID = 1.00452 au 
 Jupiter MOID = 2.65006 au 
 T_jup = 3.562 
[ hide covariance matrix ]
Orbital Elements at Epoch 2457359.5 (2015-Dec-03.0) TDB
Reference: JPL 12 (heliocentric ecliptic J2000)
 Element Value Uncertainty (1-sigma)   Units 
e .1334691087556585 4.5513e-08  
q 2.001552750506613 1.0514e-07 au
tp 2457374.541583444919
(2015-Dec-18.04158344)
8.9855e-05 TDB
node 63.41462394294481 4.2604e-05 deg
peri 254.2046630755449 5.0241e-05 deg
i 7.355447662472827 6.3257e-06 deg
  Orbit Determination Parameters
   # obs. used (total)      227  
   data-arc span      5677 days (15.54 yr)  
   first obs. used      2004-04-16  
   last obs. used      2019-11-01  
   planetary ephem.      DE431  
   SB-pert. ephem.      SB431-N16  
   condition code      0  
   norm. resid. RMS      .5391  
   source      ORB  
   producer      Otto Matic  
   solution date      2019-Nov-08 09:44:30  

Additional Information
 Jupiter MOID = 2.65006 au 
 T_jup = 3.562 
Orbit Covariance (6×6)
  e q tp node peri i
e 2.071441661139904E-15 -4.746421158927934E-15 3.67980588450654E-13 -2.919615888942195E-17 1.083386139600619E-13 -6.256595934663748E-15
q -4.746421158927934E-15 1.105524966327957E-14 -1.093808713067777E-12 -6.317189277747504E-16 -3.251605486279748E-13 1.475375233058656E-14
tp 3.67980588450654E-13 -1.093808713067777E-12 8.073838941700643E-9 2.41466351456323E-11 2.414483071559167E-9 -1.200400325732217E-11
node -2.919615888942195E-17 -6.317189277747504E-16 2.41466351456323E-11 1.815093249656812E-9 -1.792533395568325E-9 -4.845226133531666E-11
peri 1.083386139600619E-13 -3.251605486279748E-13 2.414483071559167E-9 -1.792533395568325E-9 2.524159084115972E-9 4.457083477549628E-11
i -6.256595934663748E-15 1.475375233058656E-14 -1.200400325732217E-11 -4.845226133531666E-11 4.457083477549628E-11 4.001462521291821E-11

Ephemeris | Orbit Diagram | Orbital Elements | Mission Design | Physical Parameters | Discovery Circumstances ]

Physical Parameter Table
Parameter Symbol Value Units Sigma Reference Notes
absolute magnitude H 16.8   n/a MPO446522  

332068 (2005 SX162)          Discovered 2005-Sep-27 by LINEAR at Socorro
Reference: 20120703/Numbers.arcLast Updated: 2012-07-09

Alternate Designations
 2005 SX162 = 2005 RO48 
Ephemeris | Orbit Diagram | Orbital Elements | Mission Design | Physical Parameters | Discovery Circumstances ]
ABOUT SSD CREDITS/AWARDS PRIVACY/COPYRIGHT GLOSSARY LINKS
FirstGov 2020-Oct-20 12:36 UT
(server date/time)  
NASA Home Page
Site Manager:   Ryan S. Park
Webmaster  Alan B. Chamberlin